Miscellaneous Local Product
Issued by NWS North Platte, NE

Home | Current Version | Previous Version | Text Only | Print | Product List | Glossary On
Versions: 1 2 3 4 5 6 7 8 9 10 11 12 13 14 15 16 17 18 19 20 21 22 23 24 25 26 27 28 29 30 31 32 33 34 35 36 37 38 39 40 41 42 43 44 45 46 47 48 49 50
000
AXUS43 KLBF 071010
MISLBF


WESTERN AND NORTH CENTRAL NEBRASKA HOURLY WEATHER ROUNDUP
NATIONAL WEATHER SERVICE NORTH PLATTE NE
500 AM CDT THU MAY 07 2015

***STATIONS NOT REPORTING VARIABLES SUCH AS SKY/WEATHER OR
PRESSURE ARE PROVIDED BY THE NEBRASKA DEPARTMENT OF
ROADS...RAWS...AND APRS NETWORKS...AND ARE NOT UNDER
NATIONAL WEATHER SERVICE QUALITY CONTROL***

...OBSERVATIONS IN AND NEAR THE EASTERN PANHANDLE OF NEBRASKA...

CITY           SKY/WX    TMP DP  RH WIND       PRES   REMARKS
PINE RIDGE     LGT RAIN  47  45  93 NW12      29.80R FOG
CHADRON        CLOUDY    48  45  89 W9        29.80R
ALLIANCE       CLOUDY    48  44  86 NW13      29.80R
SIDNEY         CLOUDY    47  43  86 NW17      29.83R
WHITECLAY        N/A     45  44  97 NW6         N/A
CRESCENT LAKE    N/A     48  47  95 NW10        N/A
BIG SPRINGS      N/A     51  48  89 NW7         N/A
$$

...OBSERVATIONS IN NORTH CENTRAL NEBRASKA...

CITY           SKY/WX    TMP DP  RH WIND       PRES   REMARKS
VALENTINE      CLOUDY    53  50  89 NW17      29.67S
THEDFORD       CLOUDY    54  52  95 NW10      29.71R
AINSWORTH      CLOUDY    58  57  96 NW9       29.66R
O`NEILL        CLOUDY    60  59  97 W9        29.63S FOG
ORD            CLOUDY    58  57  97 SW5       29.63R
BROKEN BOW     PTCLDY    55  54  96 SW6       29.66R FOG
VALENTINE NWR    N/A     53  53  99 NW16        N/A
SPRINGVIEW       N/A     57  55  95 CALM        N/A
HALSEY           N/A     53  53 100 W10         N/A
ROSE             N/A     57  57 100 SW6         N/A
NEWPORT          N/A     60  59  99 W6          N/A
SARGENT          N/A     56  55  98 CALM        N/A
COMSTOCK         N/A     60  60  99 W6          N/A
EWING            N/A     60  59  96 CALM        N/A
$$

...OBSERVATIONS IN SOUTHWEST NEBRASKA AND FAR NORTHEAST COLORADO...

CITY           SKY/WX    TMP DP  RH WIND       PRES   REMARKS
WRAY           FAIR      51  47  87 NW10      29.81R
IMPERIAL       CLOUDY    51  46  83 NW17      29.77R
OGALLALA       CLOUDY    51  49  94 NW12G18   29.78R
NORTH PLATTE   CLOUDY    54  51  90 NW14      29.72R
MCCOOK         LGT RAIN  55  50  83 W10       29.76R
LEXINGTON      MOCLDY    55  54  97 W10       29.70R
PAXTON           N/A     53  50  90 NW10        N/A
SUTHERLAND       N/A     49  47  91 NW6         N/A
GOTHENBURG       N/A     55  50  83 W5          N/A
CALLAWAY         N/A     56  55  97 NW12        N/A
$$

...NORTH PLATTE AREA...

CITY           SKY/WX    TMP DP  RH WIND       PRES   REMARKS
AIRPORT        CLOUDY    54  51  90 NW14      29.72R
$$

...SOME WEATHER OBSERVATIONS FROM AROUND THE REGION...

CITY           SKY/WX    TMP DP  RH WIND       PRES   REMARKS
DENVER         CLOUDY    44  42  93 NE9       29.87R
LARAMIE        CLOUDY    38  37  97 N8        29.88R WCI  32
CHEYENNE       CLOUDY    40  36  86 N16G25    29.87S WCI  31
SCOTTSBLUFF    CLOUDY    48  48 100 NW14      29.84R
RAPID CITY     CLOUDY    48  43  82 NW31G41   29.77R
PIERRE         CLOUDY    57  55  93 W3        29.62R
WINNER         CLOUDY    57  53  86 W17G24    29.63R
SIOUX FALLS    CLOUDY    61  59  93 S15       29.62F
OMAHA          LGT RAIN  61  60  97 SE10      29.76F
GRAND ISLAND   CLOUDY    63  60  90 S17G23    29.65S
KANSAS CITY    CLOUDY    68  58  70 S18G28    29.81F THUNDER
WICHITA        MOCLDY    65  61  87 S15       29.78S
HAYS           CLOUDY    64  55  72 SW9       29.76R
LIBERAL        MOCLDY    59  52  77 S16       29.78R
GOODLAND       CLOUDY    51  49  92 NW8       29.81R
$$



USA.gov is the U.S. government's official web portal to all federal, state and local government web resources and services.